Location: ?????????
(41.2393°N, 22.9479°E)
Time: 14:08:22
(UTC+00:00)

Cosmos 44 Rocket - Visible Passes

Search period start: 14 February 2026 00:00
Search period end: 24 February 2026 00:00
Orbit: 633 x 744 km, 65.1° (Epoch: 13 February)

Date Brightness Start Highest point End Pass type
(mag) Time Alt. Az. Time Alt. Az. Time Alt. Az.
14 Feb 3.3 16:52:38 10° SSW 16:57:30 87° ESE 17:02:35 10° NNE visible
14 Feb 5.9 18:36:26 10° W 18:39:37 17° NW 18:42:35 11° N visible
15 Feb 4.9 17:32:59 10° WSW 17:37:27 33° NW 17:42:03 10° NNE visible
16 Feb 3.5 16:30:44 10° SW 16:35:37 79° WNW 16:40:42 10° NNE visible
16 Feb 6.0 18:15:05 10° WNW 18:17:53 15° NW 18:20:44 10° N visible
17 Feb 5.2 17:11:21 10° WSW 17:15:38 29° NW 17:20:03 10° NNE visible
18 Feb 6.0 17:53:50 10° WNW 17:56:09 13° NW 17:58:32 10° N visible
19 Feb 5.4 16:49:45 10° W 16:53:50 25° NW 16:58:03 10° N visible
20 Feb 6.1 17:32:44 10° NW 17:34:26 12° NNW 17:36:10 10° NNW visible
22 Feb 6.2 17:12:09 10° NW 17:12:44 10° NNW 17:13:19 10° NNW visible
